Wetbulb
54.93 54.80 54.78 54.92 54.88 54.72 54.33 54.02 53.76 53.95 54.64 54.80 55.08 56.78 59.11 60.72 59.08 57.03 54.32 54.91 54.29 53.92 53.06 53.62 53.35 53.12 48.89 41.95 41.42 50.61 53.59 54.45 52.69 49.92 45.40 44.21 41.49 40.25 36.37 38.21 39.68 38.67 40.42 42.79 44.71 45.21 45.94
55.19 54.69 54.41 54.36 54.48 54.52 54.26 53.94 53.67 53.28 53.53 54.12 54.72 55.92 58.10 59.92 58.55 56.05 53.71 54.57 52.74 53.51 52.46 52.92 53.15 52.26 44.90 35.84 47.28 50.73 49.65 49.98 49.43 48.37 46.36 46.03 42.62 43.25 39.55 38.41 37.56 39.84 40.22 40.76 43.32 43.90 45.54
54.09 54.44 54.37 53.99 53.63 53.79 53.72 53.58 52.98 53.12 53.20 53.14 54.32 54.94 55.80 59.13 57.49 55.85 54.36 54.60 52.12 52.18 52.12 52.84 53.59 50.18 43.66 41.07 48.92 50.32 49.30 49.02 50.03 48.55 44.56 46.99 46.72 42.27 40.77 37.04 41.55 40.05 36.27 39.78 41.11 41.90 42.93
54.76 54.42 54.38 54.45 53.95 53.56 53.46 52.66 52.50 52.80 52.87 52.75 53.52 53.88 56.49 57.02 56.82 55.22 54.33 53.31 52.16 51.26 52.47 53.66 53.52 48.71 39.93 47.84 50.84 48.95 49.92 48.91 50.33 50.05 48.22 48.29 48.07 43.47 39.96 41.49 38.72 36.54 36.62 31.45 39.32 42.32 43.32
54.38 54.43 54.37 54.16 54.04 53.77 53.48 53.26 52.37 52.21 52.55 52.36 52.57 53.53 55.73 57.30 55.69 54.10 52.55 51.19 51.72 51.41 52.94 53.50 48.86 44.77 37.82 49.25 45.84 48.95 49.67 45.56 47.42 48.27 48.65 48.41 46.38 40.29 37.89 34.33 33.45 34.76 28.66 30.46 34.70 42.78 42.61
54.19 54.08 53.84 53.63 53.47 53.45 53.29 53.19 52.89 52.38 51.77 51.71 51.90 52.99 55.80 56.63 54.27 53.52 51.90 51.94 52.09 51.08 50.79 49.77 47.67 40.75 43.49 40.63 45.45 46.36 48.13 46.57 44.11 44.09 42.95 42.44 40.49 34.95 35.85 32.43 26.36 28.37 29.50 31.90 32.80 39.54 42.08
53.81 53.74 53.56 53.02 52.60 52.87 53.00 52.99 52.74 52.51 51.55 51.11 51.63 51.85 54.71 54.41 54.20 52.94 51.04 48.46 42.07 41.82 44.52 40.21 40.72 40.05 41.24 45.27 46.90 44.59 46.80 44.68 43.74 40.83 33.94 37.33 32.75 30.31 32.93 35.68 35.23 33.31 32.37 32.31 37.34 40.69 40.47
53.34 53.48 53.24 52.99 52.89 52.91 52.85 52.73 52.13 51.96 51.45 51.35 51.19 51.42 53.15 54.43 53.14 52.21 48.60 42.27 43.05 43.91 38.35 43.52 43.21 42.66 44.60 45.13 39.62 42.84 47.35 39.64 38.52 33.87 36.31 33.77 30.30 35.41 36.86 36.15 34.77 32.99 32.46 33.54 38.78 41.89 41.25
52.87 52.88 52.73 52.71 52.50 52.54 52.71 52.35 51.77 51.34 50.99 50.99 50.91 51.13 53.03 53.71 52.60 50.06 46.19 44.67 48.31 46.38 38.79 39.93 42.95 42.13 42.50 43.71 39.57 40.64 43.25 40.24 36.26 33.74 33.65 30.79 33.26 36.16 36.10 32.86 31.83 32.56 32.19 34.91 36.19 40.52 42.62
52.52 52.51 52.54 52.36 52.26 52.22 52.13 52.04 51.48 51.13 50.37 50.52 50.63 51.56 54.54 52.53 47.76 46.83 44.40 48.41 48.87 46.45 34.67 34.22 38.20 41.54 42.93 43.14 38.30 44.15 44.13 40.59 36.85 33.74 35.05 34.09 36.78 35.58 34.92 32.64 34.32 30.26 36.52 38.53 38.40 38.55 34.24
51.86 51.87 52.16 51.99 52.08 51.98 52.09 51.98 51.33 50.59 49.79 49.65 50.08 51.03 53.47 51.03 46.29 43.46 46.14 49.24 47.23 44.34 23.40 33.72 37.71 45.90 43.73 40.66 40.84 41.05 45.35 40.74 34.34 34.48 33.85 34.14 34.45 33.68 32.48 34.55 37.27 35.18 39.07 39.89 39.90 37.65 37.92
51.43 51.42 51.42 52.07 51.51 52.03 51.88 51.60 51.08 49.99 49.76 49.54 49.94 50.76 52.24 48.38 47.48 47.26 48.43 46.83 44.76 32.04 21.40 32.86 38.18 37.56 37.92 39.99 39.80 42.36 41.56 42.92 41.50 34.72 37.13 35.40 39.98 38.83 38.90 40.37 39.66 41.98 38.63 38.94 39.52 37.50 30.87
51.05 51.42 51.39 51.81 51.78 51.51 51.28 50.93 49.44 49.72 49.68 49.93 50.26 51.12 50.50 49.85 43.94 48.05 46.93 43.25 32.18 26.20 31.61 31.44 33.64 36.65 36.88 36.09 36.97 38.78 38.49 37.90 35.37 32.48 31.52 34.82 37.00 40.13 42.30 38.50 41.66 40.61 36.72 30.04 28.19 29.46 27.33
50.00 50.70 50.43 50.64 50.70 51.16 51.02 50.45 49.42 49.13 48.84 48.70 49.82 51.30 49.74 48.84 48.24 46.79 45.12 36.87 26.50 28.32 30.38 35.26 35.45 35.72 34.80 36.41 36.31 36.93 37.30 36.97 39.59 36.15 34.32 32.91 30.83 37.34 41.50 39.80 37.70 38.23 36.25 31.43 23.72 25.92 29.14
50.08 50.02 49.99 50.41 50.83 50.56 49.58 48.92 49.16 48.82 48.53 48.43 49.44 48.50 47.27 46.92 47.51 45.80 39.95 31.73 30.94 31.10 34.57 34.70 34.86 33.46 33.59 35.41 35.45 36.30 36.11 36.58 38.11 38.57 33.79 33.81 32.64 39.80 41.42 42.77 41.96 37.65 33.89 35.77 31.77 33.55 31.77
50.30 49.99 49.91 50.21 50.30 49.90 49.43 49.33 48.31 48.37 48.42 48.36 46.73 44.95 44.70 47.45 46.80 44.10 38.25 31.30 33.27 34.01 36.47 35.77 31.90 33.99 32.03 34.19 34.55 35.38 35.44 38.67 38.03 39.94 39.94 36.08 32.67 37.40 39.16 43.00 42.63 39.73 38.93 33.30 34.71 27.50 25.05
50.17 50.20 49.89 49.89 49.74 49.86 49.10 49.16 49.48 49.94 50.14 49.75 44.84 39.27 44.84 47.66 46.10 40.26 33.37 33.00 35.38 38.45 38.66 36.26 33.95 33.43 33.92 33.70 34.90 34.64 35.00 38.13 40.26 39.94 40.41 37.82 37.28 35.06 38.54 37.53 36.40 38.50 36.60 34.85 34.38 32.69 30.20
49.42 49.44 49.61 49.46 48.83 48.87 49.43 50.00 50.83 51.59 51.58 48.75 42.91 34.54 45.96 46.83 36.59 37.82 34.70 34.52 38.85 37.72 40.51 39.56 38.73 36.72 35.63 35.29 35.14 35.21 34.72 37.74 42.18 40.62 36.84 38.48 37.44 33.01 34.94 39.17 39.74 39.19 36.55 35.12 33.68 29.32 30.14
50.57 52.27 53.78 54.01 51.42 50.27 51.04 51.62 52.11 53.35 51.73 45.63 39.25 39.08 46.43 46.10 32.20 33.16 35.28 36.19 38.72 38.00 38.81 38.98 37.90 38.80 38.28 36.30 33.95 36.21 37.18 42.03 42.39 40.57 38.00 38.52 34.50 31.64 32.79 36.37 38.51 37.28 37.88 37.20 35.06 35.68 29.70
52.28 53.92 55.45 54.68 54.03 53.36 53.84 54.06 53.66 52.87 51.32 48.73 41.21 33.33 39.43 41.99 39.23 35.08 34.16 36.05 35.67 40.54 39.79 40.12 38.83 39.86 38.12 36.53 38.32 35.71 36.75 40.80 42.43 41.09 40.78 40.35 34.93 32.01 30.15 31.56 35.08 33.78 36.11 37.53 35.38 35.37 33.15
52.21 55.12 54.07 53.39 52.85 52.50 52.07 51.87 51.80 51.52 50.49 49.03 41.97 36.45 38.44 33.26 35.29 35.90 36.29 37.52 35.45 35.75 40.01 40.29 38.55 38.48 37.52 34.71 35.59 35.64 38.05 39.10 41.02 40.42 40.04 39.91 32.81 32.18 33.72 34.64 35.12 35.41 35.42 36.22 34.08 34.44 33.85
52.08 54.36 53.87 53.30 52.35 51.93 51.64 51.45 51.31 50.77 49.79 44.75 38.63 37.66 39.01 36.44 37.76 35.44 36.57 36.91 35.97 36.88 38.35 37.26 37.44 37.90 38.86 36.36 36.37 35.14 37.54 37.84 37.26 40.67 38.63 38.85 33.53 32.70 32.17 34.54 35.03 33.10 34.35 34.91 35.52 35.68 36.07
51.62 52.47 53.74 52.28 51.30 51.04 50.72 50.08 49.81 49.50 48.97 43.14 41.85 41.67 41.27 35.81 35.05 34.57 36.37 37.44 37.67 39.67 39.29 39.67 39.60 39.29 38.30 38.09 40.26 40.24 40.77 39.96 39.32 38.61 37.18 36.48 35.18 33.00 29.25 32.27 32.46 30.91 32.29 33.94 34.75 36.11 35.91
50.99 51.44 52.83 52.16 51.01 50.45 50.04 49.55 48.92 47.45 46.86 43.31 41.84 42.62 38.70 32.09 34.45 35.61 37.32 38.07 38.65 38.67 38.29 38.80 40.18 39.93 39.76 41.97 41.74 41.94 41.27 40.44 40.37 38.43 39.01 36.02 34.56 34.10 30.81 30.69 24.26 32.25 36.02 35.46 34.25 34.31 36.53
49.75 50.54 51.53 52.63 51.66 50.95 50.48 49.70 48.36 46.95 45.51 41.97 40.68 41.96 39.49 32.98 35.85 36.46 36.95 38.31 39.17 39.46 38.05 38.33 39.53 40.47 43.11 40.62 38.68 35.05 35.82 36.25 36.36 36.92 37.36 38.58 36.00 31.52 29.50 28.53 29.32 32.06 34.77 34.64 33.60 33.07 36.47
49.36 50.23 51.32 52.59 52.44 51.08 51.40 50.74 49.00 47.45 45.18 42.13 40.31 40.83 42.24 35.99 35.05 34.49 37.96 38.51 38.36 38.06 38.34 38.56 42.42 43.58 41.74 39.13 36.45 30.11 29.15 30.86 31.00 33.69 37.17 36.92 37.50 35.03 30.62 25.60 24.07 32.59 36.89 38.69 37.73 31.51 37.28
49.27 50.06 51.16 52.85 52.65 52.59 51.96 51.02 50.44 48.35 46.29 44.27 40.65 40.28 40.56 35.12 34.18 33.61 37.65 38.29 38.76 38.55 38.16 39.40 40.14 40.94 40.85 38.47 34.53 32.46 31.22 32.42 30.09 29.66 31.21 33.47 34.06 31.33 31.19 29.12 31.37 36.25 37.65 38.73 29.40 31.57 37.79
49.05 50.07 51.16 53.04 52.84 52.82 52.54 50.41 49.70 49.30 46.54 45.36 40.62 41.47 40.76 35.22 34.44 35.09 35.10 36.96 38.23 39.65 38.82 38.96 39.23 39.53 39.03 36.38 35.18 34.16 32.79 33.61 32.03 32.53 32.24 31.97 31.09 31.22 30.86 28.41 25.71 38.05 36.59 33.58 37.18 38.43 37.56
48.85 50.54 52.43 53.13 52.46 52.26 52.62 50.55 49.60 48.87 47.97 45.56 41.44 41.70 41.84 38.17 35.73 38.20 38.04 38.38 37.08 37.06 39.39 37.58 37.70 37.72 40.36 38.05 36.24 35.62 33.49 32.66 31.72 30.73 33.51 30.79 34.36 33.55 33.85 34.19 36.78 39.47 38.31 39.25 39.30 37.47 37.00
MSLP
1021.59 1021.17 1020.77 1020.39 1020.15 1019.74 1019.27 1018.94 1018.73 1018.17 1017.69 1017.11 1016.65 1016.15 1015.34 1015.00 1015.30 1015.93 1016.70 1017.11 1017.16 1017.42 1017.29 1017.60 1017.68 1017.60 1017.81 1016.99 1016.08 1015.95 1016.03 1016.11 1016.16 1016.26 1016.25 1016.37 1016.52 1016.39 1016.03 1015.65 1015.42 1014.52 1013.62 1013.14 1013.01 1012.80 1012.22
1021.20 1020.81 1020.47 1020.07 1019.72 1019.40 1019.07 1018.81 1018.30 1017.97 1017.53 1016.98 1016.44 1015.81 1015.29 1014.47 1014.99 1015.68 1016.50 1016.86 1017.14 1017.06 1017.29 1017.34 1017.69 1017.73 1017.69 1016.68 1015.89 1016.06 1016.09 1016.19 1016.15 1016.38 1016.43 1016.57 1016.57 1016.74 1016.54 1016.24 1015.76 1014.38 1013.92 1013.21 1013.04 1012.75 1012.39
1020.41 1020.17 1019.80 1019.36 1019.01 1018.81 1018.60 1018.32 1017.99 1017.52 1017.16 1016.74 1016.15 1015.49 1015.31 1014.21 1014.66 1015.39 1016.26 1016.53 1016.88 1016.98 1017.21 1017.24 1017.56 1017.69 1017.42 1016.10 1015.91 1016.07 1016.07 1015.94 1016.16 1016.26 1016.27 1016.49 1016.74 1016.95 1016.80 1016.31 1015.65 1014.92 1014.30 1013.19 1012.61 1012.41 1012.13
1020.14 1019.61 1019.17 1018.88 1018.54 1018.08 1017.80 1017.51 1017.36 1017.13 1016.75 1016.25 1015.85 1015.53 1014.70 1015.14 1014.55 1015.28 1016.02 1016.29 1016.75 1016.97 1017.13 1017.19 1017.44 1017.63 1016.50 1015.96 1016.02 1016.06 1015.87 1015.98 1016.22 1016.33 1016.47 1016.65 1016.84 1017.00 1017.13 1016.76 1015.88 1014.66 1014.05 1012.73 1011.71 1011.84 1012.01
1019.57 1019.13 1018.59 1018.21 1017.92 1017.63 1017.23 1016.96 1016.70 1016.62 1016.40 1016.04 1015.67 1015.22 1014.41 1013.83 1014.25 1015.13 1015.87 1016.29 1016.68 1016.83 1016.96 1017.08 1017.52 1017.33 1015.93 1015.88 1015.89 1015.45 1015.57 1015.59 1015.99 1016.40 1016.44 1016.58 1016.77 1016.98 1017.53 1016.94 1015.60 1014.08 1012.55 1012.11 1011.21 1010.89 1011.21
1019.01 1018.46 1017.96 1017.52 1017.18 1017.02 1016.68 1016.13 1015.99 1015.96 1015.85 1015.83 1015.41 1014.83 1013.59 1013.33 1014.17 1014.99 1015.80 1016.23 1016.39 1016.79 1017.12 1017.23 1017.29 1017.43 1016.04 1015.40 1015.26 1015.32 1015.57 1015.80 1015.86 1016.06 1016.33 1016.64 1016.75 1016.73 1016.57 1016.11 1013.83 1012.80 1012.20 1011.15 1010.53 1010.37 1010.80
1018.37 1017.83 1017.33 1016.91 1016.56 1016.22 1015.83 1015.71 1015.49 1015.56 1015.45 1015.46 1015.15 1014.82 1014.17 1013.51 1014.05 1014.88 1015.63 1016.16 1016.54 1017.05 1017.05 1016.05 1015.59 1015.46 1015.35 1015.33 1015.44 1015.39 1015.55 1015.68 1015.69 1015.90 1015.99 1016.33 1017.00 1016.02 1015.34 1014.76 1013.89 1012.99 1011.93 1010.52 1009.73 1009.73 1010.28
1017.58 1017.12 1016.68 1016.30 1015.86 1015.50 1015.21 1014.97 1015.12 1015.10 1015.09 1015.15 1014.88 1014.65 1014.41 1014.37 1014.69 1015.05 1015.51 1015.28 1015.05 1015.73 1015.97 1015.69 1015.65 1015.59 1015.37 1015.27 1015.25 1015.29 1015.62 1015.60 1015.63 1015.58 1015.78 1016.57 1015.91 1015.29 1014.67 1014.22 1013.77 1013.63 1011.81 1010.11 1009.31 1009.45 1009.65
1016.77 1016.18 1015.76 1015.44 1015.13 1014.81 1014.54 1014.39 1014.57 1014.65 1014.73 1014.74 1014.53 1014.16 1013.50 1014.01 1014.75 1015.30 1015.39 1015.21 1015.07 1015.37 1015.50 1015.26 1015.21 1014.98 1014.96 1015.25 1014.90 1014.96 1015.35 1015.64 1015.62 1015.51 1015.61 1015.70 1014.98 1014.94 1014.49 1013.99 1013.57 1012.89 1011.30 1009.61 1008.83 1009.36 1009.40
1015.97 1015.44 1014.97 1014.55 1014.26 1014.00 1013.95 1013.81 1013.91 1014.14 1014.28 1014.28 1014.25 1013.91 1013.27 1014.19 1015.23 1015.11 1015.30 1015.05 1015.10 1015.41 1015.38 1014.94 1014.88 1014.60 1014.90 1014.85 1014.87 1015.01 1015.27 1015.65 1015.72 1015.54 1015.33 1015.27 1014.77 1014.44 1014.02 1013.20 1012.73 1011.46 1010.72 1009.33 1008.75 1008.30 1008.42
1015.29 1014.78 1014.19 1013.88 1013.50 1013.15 1012.90 1013.01 1013.22 1013.52 1013.83 1013.97 1014.01 1013.82 1013.84 1014.09 1014.31 1014.93 1014.76 1014.46 1015.24 1015.51 1015.39 1014.96 1014.61 1014.59 1014.50 1014.59 1014.56 1014.61 1014.87 1015.20 1015.24 1015.39 1015.64 1014.78 1014.27 1013.96 1013.38 1012.37 1011.99 1010.09 1010.05 1009.19 1008.53 1008.13 1008.43
1014.78 1014.12 1013.57 1012.90 1012.53 1012.13 1012.09 1012.31 1012.69 1013.16 1013.27 1013.49 1013.65 1013.62 1013.87 1014.29 1014.50 1014.70 1014.59 1014.72 1015.23 1015.63 1014.84 1014.53 1014.32 1014.16 1014.06 1013.95 1014.08 1014.15 1014.43 1014.83 1014.66 1014.92 1014.54 1014.41 1013.95 1013.45 1012.27 1011.28 1011.10 1010.26 1010.10 1009.51 1008.59 1008.17 1008.32
1014.18 1013.08 1012.45 1011.78 1011.61 1011.30 1011.28 1011.68 1012.28 1012.68 1013.04 1013.25 1013.31 1013.15 1013.85 1013.93 1014.35 1014.61 1014.61 1014.73 1015.29 1014.81 1014.79 1014.24 1013.80 1013.61 1013.05 1013.26 1013.43 1013.65 1013.46 1013.35 1013.58 1013.88 1013.85 1013.75 1013.31 1012.64 1011.94 1011.06 1010.60 1009.80 1009.34 1009.43 1008.97 1008.77 1009.55
1013.23 1012.19 1011.55 1011.08 1010.90 1010.77 1010.81 1011.31 1011.76 1012.16 1012.74 1012.95 1013.20 1013.08 1013.55 1014.05 1014.38 1014.70 1014.57 1014.73 1014.56 1014.24 1014.00 1013.75 1013.37 1013.04 1012.78 1013.12 1013.05 1012.97 1012.84 1012.34 1012.56 1012.98 1013.00 1012.78 1012.59 1011.91 1011.69 1010.92 1009.95 1009.58 1009.21 1008.80 1008.64 1008.56 1009.09
1012.41 1011.69 1011.13 1010.66 1010.37 1010.36 1010.65 1010.99 1011.60 1012.20 1012.61 1012.91 1013.13 1013.54 1013.87 1014.81 1014.97 1015.04 1014.47 1014.37 1014.08 1013.80 1013.43 1013.07 1013.05 1012.53 1012.67 1012.85 1012.95 1012.45 1012.49 1012.36 1012.20 1012.24 1011.98 1011.93 1012.57 1012.08 1011.45 1010.85 1010.42 1009.31 1009.19 1009.24 1008.64 1008.89 1008.65
1011.80 1011.11 1010.45 1010.04 1009.79 1009.96 1010.27 1010.88 1011.70 1011.89 1012.48 1012.97 1013.10 1013.71 1014.79 1015.19 1015.41 1015.24 1014.63 1014.27 1014.14 1014.03 1013.52 1013.06 1012.37 1012.53 1012.33 1012.46 1012.40 1012.17 1012.28 1012.41 1012.15 1012.16 1011.88 1011.77 1011.98 1012.38 1011.71 1010.67 1010.29 1009.48 1009.65 1009.19 1008.67 1008.19 1008.66
1011.47 1010.70 1009.96 1009.51 1009.41 1009.40 1009.93 1010.20 1011.08 1011.52 1012.15 1012.85 1013.26 1014.36 1015.61 1015.67 1015.58 1015.13 1014.68 1014.47 1014.18 1013.96 1013.52 1012.94 1012.45 1012.39 1012.51 1012.46 1012.51 1012.41 1012.72 1012.63 1012.40 1012.00 1011.67 1011.45 1011.03 1012.37 1011.77 1011.22 1010.75 1009.97 1009.31 1009.29 1009.13 1008.81 1008.01
1011.19 1010.28 1009.25 1008.49 1008.29 1008.52 1009.00 1009.40 1010.21 1010.88 1011.76 1013.17 1013.72 1014.91 1016.01 1016.08 1015.94 1015.27 1014.82 1014.95 1014.32 1013.86 1013.55 1013.01 1012.65 1012.43 1012.33 1012.47 1012.51 1012.52 1012.69 1012.90 1012.64 1012.45 1011.70 1011.74 1011.57 1011.91 1012.14 1011.97 1011.65 1011.16 1010.57 1010.04 1009.17 1009.36 1009.33
1010.33 1008.04 1005.69 1004.50 1005.43 1006.48 1007.29 1007.92 1009.09 1009.73 1011.57 1012.63 1014.20 1015.40 1016.43 1016.27 1015.52 1015.19 1015.24 1014.81 1014.33 1013.76 1013.37 1012.97 1012.65 1012.62 1012.59 1012.51 1012.67 1012.85 1012.86 1012.96 1012.86 1012.49 1012.29 1011.96 1011.86 1011.75 1011.87 1012.15 1011.68 1011.27 1011.17 1010.79 1010.32 1009.80 1009.76
1010.37 1007.66 1005.58 1004.56 1004.82 1005.90 1005.94 1006.94 1008.42 1010.01 1011.53 1012.34 1014.18 1015.68 1016.48 1016.34 1015.81 1015.27 1015.10 1014.44 1014.04 1013.71 1013.37 1013.13 1012.84 1012.66 1012.59 1012.66 1012.82 1012.93 1013.03 1012.92 1012.96 1012.81 1012.73 1012.50 1012.54 1012.33 1012.05 1012.47 1012.63 1012.03 1011.52 1011.06 1010.66 1010.31 1010.20
1011.05 1009.07 1008.20 1008.10 1008.31 1008.34 1008.78 1009.35 1010.09 1010.93 1011.46 1012.18 1014.08 1015.16 1015.47 1015.65 1015.58 1015.49 1015.30 1014.43 1013.84 1013.53 1013.39 1013.15 1012.86 1012.71 1012.68 1012.70 1012.90 1013.00 1013.10 1012.90 1012.81 1012.95 1012.80 1012.73 1013.29 1013.61 1013.27 1013.06 1012.95 1012.55 1012.44 1012.19 1011.97 1011.98 1011.42
1012.40 1011.79 1010.80 1010.27 1010.21 1010.36 1010.48 1010.81 1010.97 1011.07 1011.19 1012.52 1014.12 1014.38 1015.04 1014.87 1015.29 1015.49 1015.16 1014.42 1013.93 1013.89 1013.58 1013.29 1013.07 1013.13 1012.95 1012.96 1013.18 1013.05 1013.19 1013.20 1013.06 1012.75 1012.93 1013.14 1013.67 1013.95 1013.80 1013.70 1013.37 1013.13 1013.12 1013.14 1013.01 1012.92 1012.74
1014.03 1013.05 1012.44 1012.01 1011.58 1011.36 1011.45 1011.58 1011.50 1011.38 1011.33 1013.18 1014.28 1014.53 1014.13 1015.29 1015.37 1015.51 1014.73 1014.51 1014.15 1013.95 1014.08 1013.87 1013.61 1013.43 1013.65 1014.03 1013.84 1013.75 1013.68 1013.61 1013.47 1013.27 1013.32 1013.27 1013.47 1013.57 1013.66 1013.76 1013.34 1013.26 1013.77 1013.72 1013.74 1013.81 1013.70
1014.69 1014.00 1013.57 1013.24 1012.67 1012.45 1012.18 1012.05 1012.04 1011.87 1011.74 1012.87 1014.05 1014.11 1014.17 1015.25 1015.45 1015.05 1014.89 1014.71 1014.42 1014.28 1014.13 1014.48 1014.27 1013.93 1014.86 1014.64 1014.31 1013.96 1013.81 1013.76 1013.59 1013.68 1013.69 1013.45 1013.52 1013.73 1013.71 1013.58 1013.51 1013.87 1014.14 1014.20 1014.13 1014.64 1014.72
1015.09 1014.61 1013.93 1013.65 1013.45 1013.03 1012.95 1012.71 1012.56 1012.49 1012.49 1013.34 1014.50 1014.34 1014.20 1014.91 1015.45 1015.54 1015.41 1015.06 1014.95 1014.86 1014.93 1015.05 1015.24 1015.30 1014.96 1014.58 1014.15 1014.01 1013.86 1013.81 1014.05 1014.29 1014.07 1013.85 1013.70 1013.79 1013.61 1013.39 1013.82 1013.82 1014.24 1014.44 1014.48 1015.32 1015.89
1014.81 1014.71 1014.36 1013.85 1013.79 1013.71 1013.45 1013.39 1013.19 1013.16 1013.25 1013.82 1014.86 1015.02 1014.61 1015.17 1016.17 1016.41 1015.96 1015.69 1015.20 1015.24 1015.54 1015.73 1015.75 1015.68 1015.31 1014.81 1014.37 1014.07 1014.03 1014.33 1014.37 1014.65 1014.71 1014.43 1014.16 1013.77 1014.00 1013.67 1013.49 1013.61 1014.26 1014.65 1014.85 1015.14 1016.16
1015.03 1014.40 1014.06 1013.63 1013.54 1013.85 1013.87 1013.90 1013.74 1013.61 1013.58 1013.71 1015.04 1015.35 1015.06 1015.64 1017.19 1017.28 1016.72 1016.26 1016.02 1015.77 1015.77 1015.97 1015.85 1015.67 1015.45 1014.91 1014.64 1014.61 1014.58 1015.17 1014.75 1014.70 1014.78 1014.49 1014.31 1014.02 1013.94 1013.78 1013.52 1013.85 1014.51 1015.07 1015.37 1015.78 1016.25
1014.74 1013.87 1013.59 1013.16 1013.27 1013.78 1014.03 1014.16 1014.13 1014.04 1014.00 1014.05 1015.38 1015.34 1015.16 1016.17 1017.69 1017.81 1017.57 1017.00 1016.70 1016.32 1016.05 1016.55 1016.51 1016.05 1015.75 1015.29 1015.19 1015.09 1015.12 1015.38 1015.37 1015.23 1015.05 1014.74 1014.44 1014.21 1014.36 1014.00 1013.74 1014.15 1015.01 1015.06 1015.10 1015.86 1016.43
1014.35 1013.40 1012.64 1012.66 1013.08 1013.72 1014.12 1014.53 1014.57 1014.45 1014.33 1014.21 1014.97 1015.41 1015.27 1015.83 1018.01 1018.28 1018.26 1018.15 1017.91 1017.48 1017.07 1017.14 1016.76 1016.19 1015.97 1015.71 1015.79 1015.75 1015.59 1015.80 1015.64 1015.03 1015.49 1015.20 1014.64 1014.33 1014.37 1013.73 1014.01 1014.36 1014.74 1015.26 1015.59 1015.99 1016.78
Wind_Speed
19 18 18 17 18 19 19 19 19 21 22 21 21 21 20 17 16 9 3 2 3 6 4 5 3 2 2 4 7 3 1 6 6 3 3 4 5 4 9 6 7 17 20 16 12 15 19
20 19 19 20 19 18 16 19 20 19 20 22 22 22 22 15 14 12 5 4 2 4 3 4 5 4 4 8 3 3 2 5 4 4 4 5 3 4 8 11 12 9 16 21 14 14 14
21 19 20 18 17 17 17 17 18 19 19 21 22 22 24 19 17 14 8 8 1 4 4 7 8 3 6 9 1 3 2 4 5 6 6 7 6 7 2 9 15 17 19 15 16 19 15
23 20 21 20 19 18 17 15 16 19 19 20 21 21 20 22 16 13 8 8 3 5 6 9 7 3 7 1 2 6 6 5 4 4 4 2 5 9 6 7 8 13 18 17 17 16 12
23 23 21 19 19 19 18 17 14 16 18 19 20 22 24 17 19 15 11 4 5 3 5 6 5 4 5 0 6 4 7 7 5 4 4 4 6 6 3 7 7 12 12 19 16 18 12
23 22 20 21 18 18 20 18 16 15 18 16 19 20 30 24 20 18 12 6 5 4 5 3 1 4 5 4 3 2 3 4 6 4 5 7 4 4 4 6 8 10 17 16 18 20 17
26 25 23 20 22 20 20 19 18 17 14 14 16 17 15 19 23 20 12 5 6 3 5 7 3 3 2 2 1 4 4 4 6 5 9 5 6 11 11 16 6 3 12 14 15 19 17
26 25 23 23 22 21 19 21 16 17 13 11 14 16 15 17 17 16 5 5 4 4 4 13 5 8 5 1 4 7 5 5 5 9 7 6 10 13 13 14 13 2 14 15 9 19 12
28 27 24 24 23 22 23 19 14 14 12 11 12 17 26 21 19 9 4 7 4 4 4 4 4 6 1 6 3 4 5 0 6 9 12 12 5 9 8 7 8 8 12 12 10 14 5
29 27 27 25 23 21 22 19 14 13 12 12 11 11 20 22 7 5 3 9 4 2 2 5 4 1 4 3 3 3 5 4 3 5 6 7 5 6 8 11 9 9 15 10 16 15 6
30 30 27 25 25 25 20 17 13 10 6 7 8 8 18 8 9 5 3 7 6 2 3 4 4 2 1 4 2 4 4 5 4 3 3 3 4 6 5 7 14 3 14 16 19 10 7
32 30 29 26 25 23 19 15 11 6 7 8 8 6 15 5 2 2 4 10 3 3 2 3 2 2 4 3 2 1 4 5 5 1 1 2 2 3 3 7 15 7 8 3 1 3 6
36 28 26 25 22 20 16 8 5 5 7 4 8 10 10 7 4 5 7 5 3 4 1 4 2 3 3 4 2 2 4 4 5 2 3 2 2 2 3 6 8 7 12 3 3 3 5
29 27 25 22 19 17 10 7 10 9 0 5 8 6 10 3 6 6 4 2 4 2 3 2 2 2 4 3 1 2 4 6 6 4 2 3 3 4 1 2 3 4 3 2 5 4 5
28 25 23 20 16 12 5 2 5 3 1 5 8 3 3 2 5 2 6 2 3 2 3 7 3 3 2 2 2 4 5 7 6 9 3 2 4 7 7 5 2 1 3 2 6 3 6
25 21 20 19 15 10 9 7 6 10 7 4 1 4 3 5 1 1 1 2 2 1 2 1 1 2 2 3 1 3 6 5 7 6 4 4 4 6 6 5 4 5 1 2 1 4 6
26 25 25 22 19 15 9 12 12 15 12 8 2 4 3 4 2 2 1 1 2 1 2 2 2 4 2 1 3 3 4 2 6 7 5 3 3 4 4 8 8 4 3 4 1 4 4
31 28 26 24 22 20 18 18 14 12 14 9 3 4 3 1 3 1 1 2 2 2 1 1 1 3 2 1 3 2 3 3 10 5 4 4 4 4 5 2 5 3 5 4 3 5 4
35 36 33 23 26 26 22 23 19 16 21 5 4 4 2 4 3 4 2 2 2 2 1 0 2 1 1 2 1 1 2 3 7 5 4 3 4 2 5 5 2 5 6 4 2 1 4
38 39 26 27 29 27 26 25 31 31 19 5 4 4 2 2 2 4 2 2 3 1 1 1 2 1 2 2 4 3 1 3 5 4 7 1 5 6 4 5 2 2 7 9 6 4 8
38 27 34 36 32 30 28 25 24 18 10 5 3 3 4 4 6 5 2 2 4 2 2 3 2 3 2 2 1 2 1 2 1 5 2 2 5 4 8 6 3 6 7 8 5 3 5
34 23 27 28 27 24 23 20 16 12 9 6 4 4 3 4 8 4 3 4 7 2 2 1 3 3 4 3 4 1 1 0 2 4 3 3 4 2 3 5 4 6 4 3 5 3 5
28 29 20 24 23 21 18 16 14 10 9 3 2 1 3 6 8 5 4 4 6 4 2 4 3 4 8 4 5 6 6 6 5 3 4 3 3 1 3 5 1 5 5 5 4 5 4
24 24 19 12 15 16 15 17 15 14 8 4 2 2 3 5 8 7 4 1 7 1 3 2 3 2 3 6 7 5 7 8 9 10 5 3 3 2 2 2 1 3 3 1 6 5 5
21 24 23 14 6 12 12 15 16 20 17 5 2 1 3 7 8 4 4 3 6 6 4 3 5 3 5 1 1 0 0 2 6 7 9 6 2 3 1 1 1 1 3 3 2 3 2
17 20 20 18 2 5 6 11 14 11 12 6 4 1 2 8 8 2 4 3 4 3 3 3 3 1 1 2 1 1 2 2 1 1 2 3 5 1 2 1 3 4 3 0 1 3 5
17 17 19 16 5 12 8 8 10 12 11 6 4 2 2 5 1 1 1 3 2 3 4 3 2 2 2 1 1 1 0 2 2 1 1 0 1 1 2 2 3 4 4 3 3 3 6
18 18 19 14 10 15 8 8 8 7 5 4 2 3 1 4 3 1 2 1 3 1 4 4 4 2 1 2 2 1 2 1 3 0 2 3 4 3 2 3 4 7 5 6 5 5 4
18 19 16 2 11 7 13 8 5 5 5 4 2 1 4 6 4 1 2 3 3 3 1 1 2 1 1 3 1 2 2 2 2 2 2 4 3 2 5 1 3 6 1 5 5 5 4
Wind_Direction
320 319 319 320 323 324 329 328 332 330 334 330 325 323 343 225 202 185 163 299 312 290 295 316 176 150 200 233 248 167 179 125 133 160 242 210 228 243 249 250 260 245 250 253 259 255 263
322 322 319 317 317 319 324 324 324 328 325 331 327 325 327 291 182 147 147 205 278 283 320 298 211 153 230 248 78 173 168 165 164 186 191 207 255 271 285 265 255 266 256 256 246 254 271
308 310 305 304 305 313 314 316 322 321 324 329 328 326 329 309 165 151 183 156 141 322 284 264 211 199 242 256 172 203 226 207 180 197 217 218 231 218 317 278 261 250 254 257 236 236 241
307 311 313 308 309 305 303 309 319 321 324 324 327 325 321 333 154 138 127 104 51 261 263 234 183 192 259 167 222 237 200 189 182 203 235 214 214 249 235 268 277 240 233 242 236 216 214
314 311 311 309 306 303 304 308 314 317 318 323 327 323 321 298 144 132 112 113 221 252 263 153 158 231 263 125 221 226 211 237 189 183 211 197 173 204 210 229 228 225 222 220 233 201 181
310 309 307 309 308 306 304 305 305 313 313 322 326 325 318 147 139 134 137 151 128 102 96 112 158 228 225 205 156 142 171 218 238 226 240 224 233 237 202 197 225 208 222 211 219 178 192
314 313 310 311 308 307 303 300 308 308 312 320 321 324 8 140 142 139 140 135 106 142 211 219 184 291 215 128 126 206 188 195 207 215 242 239 218 237 220 223 264 51 236 208 200 171 189
317 318 314 310 308 303 301 301 301 303 306 318 308 310 315 152 143 143 124 167 146 63 218 229 258 263 250 173 243 194 193 235 223 246 233 208 250 268 261 239 222 193 232 207 163 161 184
316 315 312 308 305 305 304 297 299 297 301 305 309 311 304 150 143 145 187 177 82 112 261 194 205 256 108 194 256 198 197 96 244 252 236 235 234 329 242 206 193 234 239 182 148 153 169
315 314 312 308 306 297 285 288 279 284 295 290 308 312 135 129 144 137 196 218 110 115 282 168 204 182 159 219 214 164 196 225 207 269 254 243 255 207 167 180 196 216 210 199 160 162 118
318 318 317 315 306 290 290 285 278 265 289 296 284 306 158 164 131 166 201 155 118 215 220 120 150 90 176 254 340 195 184 165 230 230 261 80 127 144 184 210 194 180 170 194 174 134 126
320 319 314 304 300 294 287 280 282 237 266 307 268 288 151 123 89 113 143 120 150 189 226 169 137 201 221 167 177 212 237 194 167 189 119 46 329 239 284 182 190 282 153 207 74 76 58
318 312 307 307 298 302 285 270 309 263 254 318 283 304 200 151 162 143 142 139 142 232 275 155 162 213 104 20 4 251 284 318 26 240 40 285 92 249 294 182 191 248 163 116 92 74 76
314 322 324 320 314 312 301 222 224 242 103 343 324 338 100 63 111 154 165 125 214 91 202 133 177 164 73 11 187 340 289 3 61 53 36 65 115 10 301 64 180 137 330 356 115 118 114
331 329 328 326 322 316 297 147 115 106 263 320 331 98 66 62 117 288 184 195 347 211 150 156 169 99 74 52 308 327 27 7 359 4 25 75 66 329 30 345 309 171 47 321 105 79 101
336 332 323 320 325 331 334 123 165 252 252 245 97 85 54 115 96 224 181 355 332 253 146 157 108 339 103 26 322 12 14 8 341 7 308 62 112 14 321 303 96 27 3 203 22 112 96
344 344 337 331 323 314 304 262 228 226 220 195 78 83 67 98 280 189 174 358 311 249 310 346 95 112 85 66 29 46 23 1 351 341 9 360 353 68 261 10 3 13 32 40 71 353 128
344 322 303 288 279 274 267 262 258 218 176 137 87 86 102 321 117 185 173 338 293 166 259 13 69 82 79 74 59 74 54 357 347 318 22 10 73 83 69 322 291 334 18 347 312 94 36
333 326 319 293 245 252 253 246 241 227 148 119 75 81 45 281 123 178 319 270 270 170 255 74 93 11 23 75 84 39 344 1 3 21 9 355 30 119 131 167 143 24 5 11 34 29 31
344 344 18 67 81 85 87 114 116 123 137 90 117 109 81 302 3 189 228 176 146 87 114 54 94 165 129 69 37 111 92 333 350 24 40 322 45 357 60 59 16 30 13 7 18 36 91
354 33 76 79 76 74 77 88 95 99 115 98 41 112 161 175 174 187 275 193 163 132 53 19 104 71 77 107 97 78 42 330 11 12 59 23 85 62 49 20 32 55 46 34 59 58 87
360 68 78 68 75 65 66 63 58 63 108 80 123 150 133 148 153 179 233 193 174 120 336 82 129 72 35 62 5 57 139 47 6 8 53 36 116 146 94 49 63 76 53 58 61 76 93
6 17 62 79 67 69 68 63 50 53 77 103 122 73 128 141 160 184 180 156 181 157 65 20 130 101 67 45 63 59 71 68 48 12 59 42 116 355 69 1 18 112 29 31 80 54 1
4 6 22 81 83 77 80 75 70 59 66 103 92 126 132 148 175 194 157 208 151 343 128 41 19 75 100 120 114 98 71 72 55 46 17 96 87 13 91 239 134 74 338 341 97 62 67
2 357 356 11 110 90 75 79 78 71 61 84 82 148 124 125 178 170 177 141 112 74 68 59 21 360 147 356 122 188 63 195 41 32 24 18 88 84 333 33 350 131 155 158 234 139 104
359 353 350 344 208 172 89 71 79 90 101 90 64 336 107 132 198 54 159 170 128 103 98 55 51 30 341 45 54 334 355 1 10 99 55 45 56 307 154 192 224 93 140 83 289 244 153
349 354 347 336 241 186 89 83 72 76 86 94 63 20 97 111 75 241 153 148 108 94 90 130 152 157 312 86 48 301 28 337 287 269 161 93 23 239 172 258 263 162 151 166 232 98 164
341 351 343 326 165 189 182 90 78 78 92 74 96 17 114 90 72 288 336 176 135 194 158 135 158 178 151 195 233 144 261 114 262 300 238 227 195 195 164 229 269 153 134 214 103 142 168
340 344 342 250 164 163 181 131 102 72 56 86 76 29 55 70 81 59 76 41 351 349 110 133 26 138 112 120 175 143 188 195 301 266 198 233 258 318 238 316 77 176 320 123 141 160 179